Sokodé Airport

Jump to: basic info | weather | comments

Related pages: nearby airports | nearby navaids | notams | map

Basic information (top)

Codes: DXSK
Location: lon 8.983000, lat 1.150000, elev 1,214 ft / 370 m msl
Status: small_airport
Scheduled airline service: no
Links: Wikipedia Mobile

Weather (top)

Current conditions (rec'd 2014/09/22 21:00Z):

DXSK 222100Z 00000KT CAVOK 25/23 Q////

Airport forecast for Niamtougou International Airport 47nm (87km) N (rec'd 2014/09/22 18:36Z):

TAF TAF DXNG 221710Z 2218/2318 VRB05KT 9999 SCT006 
      TEMPO 2302/2308 BKN006 
      TEMPO 2310/2318 4000 TSRA BKN006 FEW020CB

Latest comments (top)

No comments yet for Sokodé Airport

More... (top)

See also NOTAMs and nearby airports and navaids, or visit the Sokodé Airport page at the main OurAirports website..